{"data":{"norad_id":62901,"intl_designator":"2025-025B","name":"LEGION 6","alt_names":[],"object_type":"PAYLOAD","status":"ACTIVE","operator":null,"country":"US","launch_date":"2025-02-04","launch_site_code":"AFETR","launch_vehicle":null,"mission":null,"orbit_class":"UNKNOWN","rcs_meters":null,"size_class":null,"mass_kg":null,"dimensions":null,"purposes":[],"wikipedia_slug":null,"has_3d_model":false,"image_url":null,"decayed_at":null,"tle_current":{"epoch":"2026-09-22T09:35:28.794912Z","epoch_age_seconds":151439,"freshness":"FRESH","line1":"1 62901U 25025B   26265.39963883  .00002881  00000+0  16276-3 0  9995","line2":"2 62901  45.0008  49.3067 0010322 293.6849  66.2946 15.15572960 90389","mean_motion":15.1557296,"eccentricity":0.0010322,"inclination_deg":45.0008,"raan_deg":49.3067,"arg_perigee_deg":293.6849,"mean_anomaly_deg":66.2946,"bstar":0.00016276,"rev_number":9038,"period_min":95.013571633001,"perigee_km":512.12017834403,"apogee_km":526.35912270137,"semimajor_km":6897.3766505227,"source":"CELESTRAK","updated_at":"2026-09-23T09:00:21.690987Z"}}}